User: anonymous   Login
Location: Monreal
(44.6700°N, 73.7400°W)
Time: 04:10:58
(UTC-04:00)
Language:

CUTE-I - Orbit

View from above orbital plane
View from above orbital plane
View from above satellite
View from above satellite

Ground track
Ground track

The orbit data is extracted from the following two-line orbital elements,

1 27844U 03031E   18171.47617715 +.00000038 +00000-0 +37067-4 0  9996
2 27844 098.6862 180.0843 0009951 009.7880 350.3490 14.22118469776626
Epoch (UTC): 20 June 2018 11:25:41
Eccentricity: 0.0009951
inclination: 98.6862°
perigee height: 811 km
apogee height: 825 km
right ascension of ascending node: 180.0843°
argument of perigee: 9.7880°
revolutions per day: 14.22118469
mean anomaly at epoch: 350.3490°
orbit number at epoch: 77662

The dashed part of the orbit path shows where the satellite is in the earth's shadow,  

DLR